User: anonymous   Login
Location: Unspecified
(0.0000°N, 0.0000°E)
Time: 09:14:17
(UTC+00:00)
Language:

CHUBUSAT 1 - Orbit

View from above orbital plane
View from above orbital plane
View from above satellite
View from above satellite

Ground track
Ground track

The orbit data is extracted from the following two-line orbital elements,

1 40300U 14070C   17086.83424895 +.00001088 +00000-0 +52428-4 0  9996
2 40300 097.4002 168.2123 0021626 031.1287 088.5448 15.20661305132421
Epoch (UTC): 27 March 2017 20:01:19
Eccentricity: 0.0021626
inclination: 97.4002°
perigee height: 489 km
apogee height: 519 km
right ascension of ascending node: 168.2123°
argument of perigee: 31.1287°
revolutions per day: 15.20661305
mean anomaly at epoch: 88.5448°
orbit number at epoch: 13242

The dashed part of the orbit path shows where the satellite is in the earth's shadow,  

DLR